Date,TemperatureHighF,TemperatureAvgF,TemperatureLowF,DewpointHighF,DewpointAvgF,DewpointLowF,HumidityHigh,HumidityAvg,HumidityLow,PressureMaxIn,PressureMinIn,WindSpeedMaxMPH,WindSpeedAvgMPH,GustSpeedMaxMPH,PrecipitationSumIn
2013-1-1,31,26,20,31,25,16,99,96,84,30.09,29.98,5,2,7,0.00
2013-1-2,27,17,8,20,14,8,99,91,71,30.21,30.05,4,1,7,0.00
2013-1-3,31,19,3,26,17,3,99,92,69,30.18,30.07,7,2,11,0.00
2013-1-4,34,27,23,26,22,20,99,82,59,30.22,30.10,9,4,14,0.01
2013-1-5,41,30,22,30,26,20,97,85,64,30.33,30.09,5,2,9,0.04
2013-1-6,37,33,30,35,32,29,99,95,83,30.22,29.95,5,3,8,0.04
2013-1-7,41,30,25,34,29,25,99,94,69,30.42,30.22,5,2,10,0.01
2013-1-8,50,31,20,34,27,20,99,87,51,30.31,30.21,5,1,8,0.01
2013-1-9,52,38,29,44,35,28,99,87,64,30.46,30.16,7,2,14,0.05
2013-1-10,44,35,24,35,31,-1,99,87,67,30.57,30.24,4,2,7,0.00
2013-1-11,56,46,38,55,44,31,99,91,71,30.24,29.86,5,2,9,0.39
2013-1-12,60,54,46,60,54,46,99,99,99,30.05,29.89,5,1,11,0.01
2013-1-13,66,58,39,65,58,39,99,99,95,30.00,29.78,8,3,14,0.20
2013-1-14,39,30,26,39,29,24,99,94,78,30.40,30.00,11,2,12,0.00
2013-1-15,29,28,28,26,26,24,93,89,82,30.19,30.07,4,3,8,0.00
2013-1-16,35,31,28,30,28,26,99,88,70,30.09,29.87,6,2,11,0.00
2013-1-17,36,32,26,33,29,20,99,86,72,30.22,29.99,10,3,12,0.00
2013-1-18,35,26,19,22,17,9,90,69,52,30.45,30.12,10,4,14,0.00
2013-1-19,53,42,33,34,27,22,68,56,43,30.14,29.74,14,6,17,0.00
2013-1-20,46,30,20,37,19,11,85,65,53,30.14,29.70,11,6,18,0.00
2013-1-21,22,16,8,17,10,1,98,77,60,30.11,29.91,7,3,12,0.00
2013-1-22,11,7,5,5,0,-4,94,75,54,30.24,30.04,7,4,12,0.00
2013-1-23,15,10,4,12,5,-1,98,80,63,30.25,30.04,5,2,8,0.00
2013-1-24,25,14,7,17,8,1,99,79,44,30.52,30.03,8,2,10,0.00
2013-1-25,19,14,10,16,10,7,99,86,73,30.47,30.00,5,2,8,0.00
2013-1-26,27,21,16,25,19,16,99,91,76,30.41,30.05,5,1,5,0.00
2013-1-27,36,28,8,27,22,8,99,79,56,30.48,30.24,6,2,6,0.00
2013-1-28,47,39,27,46,39,27,99,99,96,30.25,29.94,8,3,11,0.05
2013-1-29,60,53,46,60,52,46,99,99,99,30.04,29.69,6,2,12,0.13
2013-1-30,66,57,37,64,56,36,99,98,92,29.70,29.18,10,5,17,0.28
2013-1-31,36,25,16,36,22,11,99,88,69,29.85,29.30,8,0,13,0.04
2013-2-1,18,15,12,13,10,7,96,80,70,30.27,29.84,0,0,0,0.00
2013-2-2,23,17,10,23,15,6,99,94,78,30.26,29.94,0,0,0,0.00
2013-2-3,26,19,16,21,17,13,99,90,66,29.99,29.84,5,2,10,0.00
2013-2-4,26,20,16,26,20,14,99,98,91,30.02,29.85,4,1,8,0.00
2013-2-5,32,25,21,27,23,21,99,93,76,29.93,29.82,4,1,6,0.01
2013-2-6,38,26,18,27,19,13,99,77,40,30.31,29.92,5,1,6,0.05
2013-2-7,49,32,16,33,25,14,94,77,52,30.27,29.89,7,2,8,0.01
2013-2-8,38,31,24,38,30,24,99,99,93,30.20,29.75,5,1,9,0.20
2013-2-9,40,26,20,25,22,17,99,83,49,30.39,30.20,4,0,5,0.00
2013-2-10,53,34,19,38,24,18,99,71,37,30.31,29.86,6,2,8,0.00
2013-2-11,51,41,33,51,38,26,99,87,71,29.92,29.67,11,5,15,0.06
2013-2-12,40,31,24,31,27,23,99,84,67,30.07,29.91,10,3,11,0.00
2013-2-13,35,28,22,31,27,22,99,95,82,29.93,29.73,4,1,6,0.00
2013-2-14,38,32,22,38,31,22,99,98,89,29.90,29.81,11,3,11,0.00
2013-2-15,36,31,23,33,28,23,99,89,72,30.08,29.90,6,2,10,0.00
2013-2-16,30,24,19,24,19,10,99,83,47,30.06,29.94,6,2,8,0.00
2013-2-17,28,17,8,19,12,6,99,82,48,30.22,29.94,6,2,10,0.00
2013-2-18,44,25,4,36,18,4,99,77,51,30.23,29.77,8,2,11,0.00
2013-2-19,46,31,17,42,29,14,99,93,69,29.95,29.62,11,3,17,0.13
2013-2-20,22,18,15,19,14,11,99,85,65,30.19,29.94,0,0,0,0.13
2013-2-21,25,20,16,18,16,15,99,87,68,30.33,30.16,6,1,8,0.00
2013-2-22,38,29,17,38,28,17,99,97,88,30.27,29.93,7,2,11,0.01
2013-2-23,39,34,26,36,32,26,99,93,74,29.98,29.87,4,1,7,0.00
2013-2-24,32,29,26,29,26,23,99,88,75,30.13,29.88,5,2,8,0.00
2013-2-25,47,32,20,34,26,20,99,83,48,30.21,30.04,6,1,7,0.00
2013-2-26,41,33,28,36,31,25,99,92,75,30.08,29.54,8,4,15,0.50
2013-2-27,42,37,32,42,36,30,99,99,99,29.66,29.51,7,2,11,0.26
2013-2-28,34,32,29,34,32,29,99,99,99,29.86,29.59,6,2,9,0.05
2013-3-1,30,27,25,29,26,25,99,96,85,30.00,29.85,6,4,9,0.00
2013-3-2,30,25,22,26,24,22,99,97,82,29.98,29.94,6,3,10,0.00
2013-3-3,31,23,21,27,22,20,99,96,82,30.02,29.94,5,3,8,0.00
2013-3-4,38,26,18,26,22,18,99,83,56,30.11,30.00,6,2,9,0.06
2013-3-5,46,31,18,28,23,18,99,74,38,30.09,29.67,8,3,13,0.00
2013-3-6,46,37,32,34,32,28,99,83,60,30.15,29.67,9,4,15,0.00
2013-3-7,43,34,29,37,32,29,99,95,75,30.33,30.13,6,3,8,0.00
2013-3-8,37,30,25,35,29,25,99,96,81,30.43,30.32,7,2,10,0.00
2013-3-9,57,39,21,40,31,21,99,77,50,30.42,30.13,4,2,7,0.00
2013-3-10,72,57,44,47,40,32,88,54,40,30.13,29.91,7,3,12,0.02
2013-3-11,60,54,42,54,45,39,99,74,48,29.92,29.62,7,3,14,0.45
2013-3-12,42,36,33,42,34,29,99,93,78,29.98,29.76,5,3,9,0.01
2013-3-13,34,29,26,31,27,20,99,91,67,30.13,29.90,8,4,12,0.01
2013-3-14,40,30,22,25,22,18,93,74,50,30.21,30.09,7,3,11,0.01
2013-3-15,44,35,27,40,32,25,99,87,74,30.10,29.84,6,2,11,0.02
2013-3-16,35,32,28,35,32,28,99,99,99,30.00,29.67,6,2,8,0.22
2013-3-17,35,30,26,30,26,22,99,87,65,30.20,30.00,6,2,8,0.00
2013-3-18,43,33,25,43,32,22,99,95,86,30.16,29.63,6,4,10,0.22
2013-3-19,42,31,27,42,27,20,99,83,64,29.94,29.69,9,4,14,0.01
2013-3-20,32,27,21,25,21,19,99,79,63,29.95,29.86,7,3,11,0.00
2013-3-21,28,22,14,27,19,12,99,87,68,29.90,29.84,6,3,11,0.00
2013-3-22,33,27,23,28,25,23,99,92,73,30.01,29.88,5,2,8,0.01
2013-3-23,46,31,18,32,26,17,99,83,53,30.06,29.97,7,2,10,0.00
2013-3-24,36,30,24,28,26,24,99,86,67,30.02,29.51,10,4,15,0.05
2013-3-25,36,33,31,36,32,28,99,98,79,29.81,29.44,7,3,13,0.18
2013-3-26,40,34,31,38,33,31,99,97,83,30.08,29.81,6,2,10,0.01
2013-3-27,44,37,32,36,33,31,99,86,66,30.15,30.06,7,3,11,0.04
2013-3-28,46,38,33,37,34,32,99,86,67,30.26,30.14,6,3,8,0.00
2013-3-29,54,41,29,36,31,24,95,72,41,30.26,30.18,6,2,11,0.00
2013-3-30,58,41,24,38,28,24,99,66,33,30.24,29.99,5,1,8,0.00
2013-3-31,52,46,41,50,39,26,99,79,53,30.00,29.69,6,2,11,0.06
2013-4-1,46,38,31,46,28,14,99,70,33,30.05,29.68,9,4,14,0.02
2013-4-2,40,31,23,28,20,11,95,64,31,30.18,30.04,6,3,11,0.00
2013-4-3,39,31,23,26,18,12,84,60,40,30.41,30.17,8,3,14,0.00
2013-4-4,57,36,18,22,18,14,94,54,21,30.38,29.95,4,1,8,0.00
2013-4-5,50,38,28,37,26,17,79,63,45,30.21,29.92,8,3,14,0.00
2013-4-6,57,40,22,26,21,18,97,53,23,30.27,29.94,5,2,9,0.00
2013-4-7,73,58,45,52,41,20,90,54,29,30.03,29.82,9,4,14,0.00
2013-4-8,75,56,38,59,49,38,99,81,55,30.06,29.85,8,3,14,0.00
2013-4-9,80,71,45,65,60,45,99,70,59,30.11,29.88,8,3,11,0.00
2013-4-10,77,63,47,74,61,47,99,92,70,29.94,29.81,9,2,20,0.65
2013-4-11,51,47,42,51,47,42,99,99,99,29.93,29.59,7,3,10,0.18
2013-4-12,58,47,39,58,46,39,99,99,90,29.86,29.49,7,3,14,0.20
2013-4-13,44,40,32,42,38,32,99,92,78,30.03,29.86,7,3,11,0.00
2013-4-14,58,44,28,44,37,28,99,79,55,30.15,29.98,4,2,8,0.00
2013-4-15,72,60,46,59,52,42,94,77,61,30.07,29.96,7,3,14,0.00
2013-4-16,73,59,49,69,58,48,99,97,84,30.21,30.00,7,3,11,0.12
2013-4-17,69,56,46,57,49,46,99,78,49,30.30,30.07,6,3,9,0.00
2013-4-18,86,72,58,73,64,57,99,80,53,30.08,29.71,10,4,20,0.00
2013-4-19,74,55,39,67,50,33,99,85,71,29.86,29.44,9,5,17,0.01
2013-4-20,44,38,32,37,32,26,99,80,55,30.40,29.86,11,4,14,0.00
2013-4-21,52,39,26,34,29,26,99,72,40,30.60,30.40,7,2,13,0.00
2013-4-22,66,51,33,45,36,29,86,60,42,30.46,30.23,5,2,9,0.00
2013-4-23,74,58,42,50,41,31,80,54,38,30.25,29.91,5,3,10,0.00
2013-4-24,63,48,34,60,46,34,99,94,56,30.16,29.73,7,2,11,0.05
2013-4-25,55,41,30,47,37,30,99,89,55,30.34,30.16,7,2,13,0.00
2013-4-26,60,45,29,44,35,29,99,73,40,30.47,30.34,4,1,7,0.00
2013-4-27,74,55,35,46,40,34,99,63,30,30.40,30.13,6,1,8,0.00
2013-4-28,56,55,52,56,54,49,99,97,78,30.06,29.92,4,2,8,0.01
2013-4-29,67,59,54,66,58,54,99,98,91,30.02,29.90,3,1,9,0.00
2013-4-30,76,63,49,66,58,49,99,85,61,30.16,30.01,4,2,8,0.00
2013-5-1,80,67,52,67,59,51,99,78,54,30.29,30.16,5,2,9,0.00
2013-5-2,79,67,54,59,48,40,66,51,32,30.34,30.18,5,2,10,0.02
2013-5-3,78,66,54,51,46,40,72,50,33,30.23,30.11,7,3,13,0.00
2013-5-4,73,62,52,50,46,42,81,57,35,30.19,30.08,7,2,13,0.00
2013-5-5,76,63,49,48,42,30,90,51,24,30.13,30.00,6,2,11,0.00
2013-5-6,75,62,50,59,49,32,87,63,35,30.08,29.99,5,2,11,0.00
2013-5-7,74,64,55,68,60,55,99,88,60,30.06,29.97,5,1,10,0.01
2013-5-8,73,64,58,64,61,58,99,88,67,30.01,29.94,6,2,7,0.00
2013-5-9,80,66,54,67,55,45,99,72,32,30.00,29.93,4,1,8,0.00
2013-5-10,76,64,59,72,62,51,99,94,69,29.99,29.78,5,1,10,0.00
2013-5-11,60,50,45,60,49,44,99,99,99,29.88,29.78,5,1,8,0.00
2013-5-12,50,44,35,45,37,34,99,80,56,30.08,29.87,5,3,9,0.00
2013-5-13,52,42,32,37,32,27,99,70,43,30.17,30.06,5,2,11,0.00
2013-5-14,67,50,33,48,41,33,99,73,48,30.17,29.85,6,1,9,0.00
2013-5-15,85,68,52,70,60,47,99,78,51,29.87,29.71,7,2,11,0.00
2013-5-16,82,68,54,60,55,48,99,67,35,30.00,29.79,4,1,7,0.01
2013-5-17,82,65,51,67,53,47,93,66,43,30.15,30.00,6,1,8,0.00
2013-5-18,85,69,52,66,57,50,94,69,39,30.16,30.03,4,1,8,0.00
2013-5-19,84,72,61,74,69,60,99,90,69,30.11,29.96,3,1,6,0.00
2013-5-20,87,74,62,80,72,61,99,93,74,30.03,29.89,4,1,8,0.00
2013-5-21,87,77,68,80,73,68,99,90,70,29.95,29.82,4,1,8,0.00
2013-5-22,87,76,67,75,70,67,99,84,61,29.88,29.75,5,2,9,0.00
2013-5-23,75,62,43,72,62,43,99,98,87,30.02,29.77,4,2,10,0.02
2013-5-24,45,42,34,43,40,34,99,94,82,30.31,30.01,5,3,11,0.00
2013-5-25,61,47,31,47,38,31,99,76,49,30.36,30.26,5,2,8,0.00
2013-5-26,67,51,34,48,41,34,99,72,40,30.32,30.24,4,1,6,0.00
2013-5-27,60,52,37,56,48,37,99,88,59,30.28,30.08,2,1,5,0.01
2013-5-28,80,65,52,78,64,52,99,96,85,30.11,29.93,4,1,7,0.00
2013-5-29,87,76,69,76,71,68,99,84,68,30.08,29.97,4,2,8,0.00
2013-5-30,89,76,63,79,71,62,99,86,58,30.18,30.07,3,1,7,0.00
2013-5-31,89,74,63,80,71,63,99,91,65,30.11,29.96,4,1,8,0.00
2013-6-1,85,74,64,80,73,64,99,95,84,30.01,29.79,6,2,10,0.00
2013-6-2,79,70,63,75,67,63,99,93,72,29.93,29.77,3,1,7,0.00
2013-6-3,68,58,47,63,52,43,99,83,53,30.11,29.92,4,2,5,0.00
2013-6-4,72,57,41,59,50,41,99,81,56,30.19,30.10,3,1,4,0.00
2013-6-5,78,63,50,64,56,48,99,78,53,30.17,29.95,3,1,5,0.00
2013-6-6,65,61,55,64,60,55,99,98,82,29.96,29.81,2,0,3,0.00
2013-6-7,62,57,54,61,57,54,99,99,99,29.91,29.84,2,1,4,0.00
2013-6-8,70,62,56,65,60,56,99,94,77,30.13,29.91,2,0,5,0.00
2013-6-9,80,68,56,72,65,56,99,91,68,30.18,30.01,3,1,6,0.00
2013-6-10,72,67,64,71,67,63,99,99,99,30.01,29.78,2,0,5,0.00
2013-6-11,77,68,63,75,68,62,99,98,88,29.92,29.79,3,1,6,0.00
2013-6-12,79,73,63,79,73,63,99,99,94,29.93,29.70,1,0,4,0.00
2013-6-13,71,66,60,71,65,59,99,98,87,29.87,29.61,4,1,11,0.00
2013-6-14,72,62,54,70,61,53,99,97,86,30.10,29.86,2,0,5,0.00
2013-6-15,80,64,48,67,59,48,99,85,57,30.16,30.00,1,0,4,0.00
2013-6-16,67,65,63,67,64,63,99,99,99,30.03,29.88,2,0,4,0.00
2013-6-17,83,69,62,77,68,62,99,95,66,29.99,29.93,2,0,4,0.00
2013-6-18,77,67,56,74,66,56,99,96,84,30.04,29.90,4,1,6,0.00
2013-6-19,75,67,49,64,58,49,99,75,58,30.19,30.03,3,1,4,0.00
2013-6-20,80,66,49,67,59,49,99,81,58,30.25,30.18,2,0,4,0.00
2013-6-21,85,70,54,72,64,54,99,85,58,30.27,30.17,2,0,4,0.00
2013-6-22,90,77,62,81,73,62,99,89,72,30.19,30.05,2,1,4,0.00
2013-6-23,91,79,68,82,75,67,99,89,67,30.15,30.04,4,1,8,0.00
2013-6-24,89,78,67,79,74,67,99,89,68,30.15,30.00,3,1,5,0.00
2013-6-25,90,75,65,84,74,65,99,97,79,30.05,29.89,4,1,7,0.09
2013-6-26,81,72,66,81,72,66,99,99,96,29.98,29.82,2,0,4,0.00
2013-6-27,78,72,68,78,71,68,99,99,97,29.83,29.67,2,0,4,0.00
2013-6-28,82,70,64,78,69,63,99,98,75,29.67,29.54,2,0,5,0.00
2013-6-29,82,68,62,76,67,61,99,97,75,29.73,29.57,3,0,7,0.04
2013-6-30,78,68,62,78,68,61,99,99,95,29.91,29.72,3,0,5,0.00
2013-7-1,76,68,64,75,68,64,99,99,99,30.02,29.87,3,1,6,0.00
2013-7-2,83,72,64,80,71,64,99,98,86,30.08,29.96,3,0,4,0.00
2013-7-3,86,74,67,82,73,67,99,97,84,30.17,30.07,4,0,5,0.00
2013-7-4,79,73,69,78,73,68,99,99,99,30.22,30.14,2,0,6,0.00
2013-7-5,78,72,68,78,72,68,99,99,99,30.19,30.11,2,0,4,0.00
2013-7-6,85,74,69,84,74,69,99,99,93,30.19,30.04,2,0,4,0.00
2013-7-8,70,68,68,70,68,68,99,99,99,30.12,30.07,2,0,2,0.00
2013-7-9,86,74,68,85,74,68,99,99,99,30.11,29.95,2,1,4,0.00
2013-7-10,86,74,69,86,74,69,99,99,99,30.00,29.82,3,1,10,0.85
2013-7-11,78,68,61,72,66,60,99,93,73,30.06,29.95,4,0,4,0.01
2013-7-12,78,68,57,75,66,56,99,95,78,30.15,30.06,3,1,3,0.00
2013-7-13,85,71,61,80,70,61,99,95,76,30.22,30.14,2,1,2,0.00
2013-7-14,88,86,79,84,82,79,99,90,81,30.30,30.26,0,0,2,0.00
2013-7-15,91,84,76,86,82,76,99,93,81,30.37,30.28,0,0,3,0.00
2013-7-16,89,79,72,88,79,72,99,99,97,30.37,30.28,2,0,3,0.14
2013-7-17,92,81,72,87,80,72,99,96,80,30.33,30.20,2,0,3,0.00
2013-7-18,93,82,73,89,80,72,99,96,81,30.23,30.05,2,0,4,0.00
2013-7-19,91,81,74,87,80,74,99,96,78,30.07,29.88,3,1,7,0.00
2013-7-20,78,72,68,78,72,67,99,99,99,29.97,29.85,4,0,7,0.79
2013-7-21,83,74,68,81,74,68,99,99,90,30.02,29.94,1,0,2,0.01
2013-7-22,77,69,64,76,68,64,99,99,99,30.01,29.81,1,0,3,0.18
2013-7-23,84,70,63,83,70,63,99,99,94,29.83,29.70,2,0,4,0.54
2013-7-24,71,63,54,67,62,54,99,95,81,30.06,29.83,2,0,4,0.01
2013-7-25,75,63,51,64,59,51,99,87,62,30.14,30.05,2,0,6,0.00
2013-7-26,80,67,52,70,62,52,99,86,63,30.14,30.01,1,0,3,0.00
2013-7-27,69,66,62,69,66,61,99,99,99,30.02,29.85,0,0,4,0.18
2013-7-28,70,63,57,65,61,56,99,92,74,30.06,29.88,3,0,4,0.00
2013-7-29,70,62,53,67,61,53,99,94,74,30.22,30.05,2,0,4,0.00
2013-7-30,77,66,53,71,63,53,99,92,71,30.26,30.17,2,0,4,0.00
2013-7-31,76,68,60,76,68,60,99,99,92,30.19,29.97,2,0,4,0.00
2013-8-1,80,70,61,76,68,61,99,95,76,29.97,29.88,3,1,4,0.12
2013-8-2,73,66,59,70,64,58,99,96,83,30.03,29.93,2,0,4,0.13
2013-8-3,79,70,60,74,66,59,99,88,62,30.04,29.95,3,1,4,0.05
2013-8-4,71,63,57,67,62,57,99,95,80,30.15,30.03,3,1,5,0.51
2013-8-5,71,62,54,67,61,53,99,94,79,30.17,30.04,1,0,2,0.00
2013-8-6,79,68,57,71,65,57,99,90,72,30.07,29.99,2,0,4,0.00
2013-8-7,78,68,62,78,68,61,99,99,99,30.03,29.92,2,0,7,1.00
2013-8-8,84,74,69,83,73,69,99,99,99,30.01,29.94,4,0,10,2.02
2013-8-9,78,70,60,76,68,60,99,94,72,30.06,29.93,2,0,3,0.05
2013-8-10,78,68,59,76,67,59,99,95,79,30.14,30.05,2,0,4,0.00
2013-8-11,78,70,62,74,68,62,99,93,76,30.17,30.06,2,0,4,0.00
2013-8-12,81,70,60,78,69,60,99,98,83,30.11,29.87,2,0,4,0.00
2013-8-13,74,67,53,72,66,53,99,96,82,30.02,29.83,3,1,5,0.00
2013-8-14,69,59,51,64,57,51,99,94,75,30.19,30.02,2,0,4,0.00
2013-8-15,72,60,48,66,56,48,99,89,66,30.22,30.14,1,0,3,0.00
2013-8-16,77,64,53,67,61,53,99,90,65,30.22,30.16,1,0,4,0.00
2013-8-17,79,66,54,73,63,54,99,91,66,30.27,30.21,2,0,4,0.00
2013-8-18,75,66,57,75,66,56,99,99,93,30.25,30.15,1,0,2,0.00
2013-8-19,80,69,61,77,67,61,99,95,74,30.18,30.11,1,0,3,0.00
2013-8-20,86,71,58,77,67,58,99,90,63,30.22,30.13,1,0,3,0.00
2013-8-21,86,73,60,78,70,60,99,92,69,30.23,30.08,1,0,2,0.00
2013-8-22,83,73,65,83,73,65,99,99,98,30.12,30.00,1,0,4,0.02
2013-8-23,83,72,58,74,67,58,99,87,64,30.22,30.04,3,1,4,0.00
2013-8-24,82,67,54,70,62,54,99,85,56,30.35,30.22,2,0,4,0.00
2013-8-25,86,70,55,74,66,54,99,88,64,30.38,30.24,2,0,4,0.00
2013-8-26,86,74,64,78,72,64,99,91,70,30.27,30.04,1,0,5,0.13
2013-8-27,78,74,70,78,73,70,99,99,99,30.08,29.94,2,0,3,0.46
2013-8-28,79,74,69,79,73,69,99,99,99,30.01,29.87,3,0,4,0.32
2013-8-29,88,74,69,83,73,69,99,96,79,30.10,30.00,1,0,4,0.00
2013-8-30,87,75,63,82,73,63,99,95,78,30.06,29.85,2,0,4,0.12
2013-8-31,88,76,69,84,75,69,99,98,87,29.89,29.78,2,0,4,0.00
2013-9-1,84,74,69,83,74,68,99,99,90,29.88,29.79,2,0,4,0.15
2013-9-2,80,72,64,80,72,64,99,99,99,29.87,29.79,2,0,4,0.00
2013-9-3,65,61,55,64,61,55,99,99,99,30.08,29.89,2,0,5,0.00
2013-9-4,78,64,52,72,62,52,99,92,68,30.15,30.07,2,0,4,0.00
2013-9-5,74,63,52,68,60,52,99,91,60,30.26,30.08,2,0,4,0.00
2013-9-6,74,59,46,62,54,45,99,86,49,30.31,30.15,1,0,3,0.00
2013-9-7,81,66,50,74,63,49,99,93,70,30.15,29.97,1,0,4,0.00
2013-9-8,75,67,56,73,67,56,99,98,88,30.10,29.94,2,0,6,0.00
2013-9-9,80,66,52,80,65,51,99,99,99,30.12,30.02,0,0,2,0.00
2013-9-10,93,80,70,88,79,70,99,96,82,30.14,30.03,2,0,4,0.00
2013-9-11,91,80,73,87,79,73,99,96,78,30.17,30.01,1,0,4,0.00
2013-9-12,75,68,57,75,68,57,99,99,99,30.03,29.86,4,0,6,0.00
2013-9-13,60,56,51,60,56,50,99,99,99,30.09,29.90,3,1,4,0.00
2013-9-14,68,55,48,58,52,47,99,91,67,30.19,30.08,2,0,6,0.00
2013-9-15,66,56,45,62,55,44,99,95,81,30.20,30.08,1,0,3,0.00
2013-9-16,69,59,51,67,58,51,99,98,88,30.34,30.12,3,0,4,0.00
2013-9-17,70,54,42,58,50,42,99,90,61,30.43,30.26,2,0,6,0.00
2013-9-18,75,59,47,69,57,47,99,95,74,30.27,30.11,2,0,4,0.00
2013-9-19,77,67,59,76,66,59,99,99,99,30.15,30.04,2,0,4,0.00
2013-9-20,80,71,64,80,71,63,99,99,99,30.06,29.84,2,0,6,0.00
2013-9-21,69,63,56,69,63,56,99,99,99,29.84,29.69,3,0,4,0.00
2013-9-22,57,54,52,57,54,52,99,99,99,29.97,29.84,2,0,3,0.00
2013-9-25,71,61,56,64,60,56,99,94,74,30.00,29.93,0,0,2,0.00
2013-9-26,79,59,46,67,55,45,99,88,50,30.15,29.99,1,0,3,0.00
2013-9-27,74,59,50,64,57,50,99,92,67,30.25,30.13,3,0,7,0.00
2013-9-28,78,62,50,69,59,50,99,93,69,30.27,30.15,2,0,5,0.00
2013-9-29,75,63,51,72,62,51,99,98,87,30.15,30.02,2,0,4,0.00
2013-9-30,65,62,57,65,62,57,99,99,99,30.06,30.00,1,0,3,0.00
2013-10-1,59,56,55,58,56,55,99,99,99,30.10,30.03,0,0,1,0.00
2013-10-2,81,67,60,79,67,59,99,99,92,30.13,30.05,2,0,2,0.00
2013-10-3,81,66,61,80,66,60,99,99,99,30.12,30.04,2,0,2,0.00
2013-10-4,84,66,0,81,68,63,99,96,90,30.11,29.88,3,0,3,0.00
2013-10-5,76,68,63,76,68,63,99,99,99,29.93,29.82,2,0,3,0.00
2013-10-6,79,71,56,79,70,56,99,99,92,29.83,29.58,4,1,11,0.00
2013-10-7,57,53,47,56,52,46,99,98,88,29.99,29.60,4,1,6,0.00
2013-10-8,68,54,43,59,50,43,99,88,56,30.15,29.98,3,0,6,0.00
2013-10-9,69,54,43,58,50,43,99,88,59,30.18,30.08,3,1,6,0.00
2013-10-10,69,53,42,59,50,42,99,91,48,30.10,29.96,2,0,4,0.00
2013-10-11,75,57,44,64,53,43,99,89,50,29.99,29.91,3,0,4,0.00
2013-10-12,77,62,49,73,61,49,99,98,82,30.00,29.93,2,0,4,0.00
2013-10-13,68,63,58,68,62,58,99,99,99,30.15,29.99,2,0,4,0.00
2013-10-14,69,57,48,61,55,47,99,93,72,30.21,30.09,4,1,6,0.00
2013-10-15,64,56,44,64,55,43,99,99,99,30.11,29.81,2,0,4,0.00
2013-10-16,66,60,50,66,60,50,99,99,99,29.82,29.68,4,1,6,0.00
2013-10-17,59,49,42,58,49,42,99,99,93,29.79,29.62,3,0,4,0.00
2013-10-18,62,51,42,56,49,42,99,93,71,29.85,29.73,4,1,8,0.00
2013-10-19,52,46,41,51,45,40,99,99,99,29.80,29.59,3,1,5,0.00
2013-10-20,58,48,39,51,45,38,99,91,71,29.85,29.76,4,1,8,0.00
2013-10-21,63,53,44,54,48,44,99,84,60,29.85,29.70,4,1,9,0.00
2013-10-22,50,43,35,49,39,35,99,86,60,29.82,29.70,4,1,5,0.00
2013-10-23,44,38,34,43,37,34,99,96,79,29.78,29.62,5,1,9,0.00
2013-10-24,45,36,32,41,35,32,99,95,76,29.99,29.76,3,1,6,0.00
2013-10-25,48,39,33,43,36,33,99,91,66,30.16,29.98,4,1,7,0.00
2013-10-26,45,40,34,38,34,32,98,81,66,30.06,29.71,5,2,10,0.00
2013-10-27,51,45,34,44,40,34,99,82,65,29.93,29.89,3,1,5,0.00
2013-10-28,59,42,30,50,40,30,99,92,67,30.17,29.92,3,0,4,0.00
2013-10-29,58,44,31,50,40,31,99,90,62,30.25,30.09,2,0,4,0.00
2013-10-30,57,43,38,52,43,38,99,99,84,30.09,30.02,0,0,1,0.00
2013-10-31,66,60,55,65,60,55,99,99,99,29.90,29.22,10,2,10,0.00
2013-11-1,62,54,48,61,53,48,99,96,87,29.56,29.15,8,2,8,0.00
2013-11-2,50,45,42,50,45,42,99,99,99,29.86,29.53,6,1,6,0.00
2013-11-3,47,39,30,42,36,30,99,89,71,30.30,29.86,4,1,4,0.00
2013-11-4,45,36,28,33,29,27,99,79,52,30.36,30.22,4,2,8,0.00
2013-11-5,61,49,39,50,42,32,92,78,64,30.28,30.13,3,1,6,0.00
2013-11-6,67,55,43,62,51,39,99,87,73,30.13,29.74,6,2,11,0.00
2013-11-7,55,42,39,55,40,33,99,93,73,29.96,29.75,6,2,9,0.00
2013-11-8,40,36,29,38,34,28,99,93,76,30.12,29.92,5,1,8,0.00
2013-11-9,57,44,28,46,38,28,99,79,54,30.09,29.74,8,2,14,0.00
2013-11-10,52,43,34,47,38,34,99,82,68,30.11,29.78,7,3,11,0.00
2013-11-11,46,38,30,42,35,30,99,91,69,30.10,29.86,6,2,11,0.00
2013-11-12,37,30,27,36,29,27,99,98,87,30.30,30.02,0,0,0,0.00
2013-11-13,38,31,25,29,26,23,99,84,66,30.34,30.11,5,2,9,0.00
2013-11-14,50,38,27,31,27,24,92,65,46,30.12,29.94,6,3,12,0.00
2013-11-15,55,45,37,38,30,25,78,56,38,29.99,29.92,5,2,8,0.00
2013-11-16,60,49,34,57,48,34,99,95,77,30.03,29.80,5,1,8,0.00
2013-11-17,61,57,52,61,57,50,99,99,90,29.80,29.30,9,4,14,0.00
2013-11-18,52,44,35,50,40,30,99,87,72,29.94,29.44,11,5,14,0.00
2013-11-19,40,33,24,33,29,24,99,85,68,30.24,29.93,6,2,8,0.00
2013-11-20,48,35,23,31,24,20,99,68,37,30.27,30.13,6,2,11,0.00
2013-11-21,42,39,35,42,34,21,99,85,52,30.22,30.03,4,2,8,0.00
2013-11-22,51,44,35,49,43,34,99,99,99,30.14,29.93,7,2,11,0.00
2013-11-23,35,27,17,34,26,17,99,97,73,30.20,30.02,8,4,16,0.00
2013-11-24,24,19,14,20,15,12,99,86,63,30.33,30.19,6,3,10,0.00
2013-11-25,33,24,14,31,18,14,99,79,53,30.28,29.99,6,2,10,0.00
2013-11-26,33,31,30,33,31,29,99,99,99,30.00,29.65,7,1,7,0.00
2013-11-27,31,26,21,31,26,19,99,97,84,29.95,29.61,7,2,11,0.00
2013-11-28,28,23,15,26,22,14,99,95,74,30.23,29.95,4,1,6,0.00
2013-11-29,38,26,21,30,24,21,99,90,65,30.45,30.22,3,0,4,0.00
2013-11-30,44,29,23,33,27,23,99,91,64,30.41,30.00,4,2,8,0.00
2013-12-1,41,35,28,36,33,28,99,94,80,30.00,29.79,4,1,7,0.00
2013-12-2,39,35,31,39,34,31,99,99,99,29.80,29.68,3,0,4,0.00
2013-12-3,50,39,30,48,39,30,99,98,92,29.75,29.70,3,1,6,0.00
2013-12-4,59,49,38,58,48,38,99,99,96,29.81,29.65,5,2,8,0.00
2013-12-5,62,52,33,61,51,33,99,98,85,29.93,29.62,6,3,10,0.00
2013-12-6,33,30,26,33,30,25,99,99,99,30.14,29.91,4,0,5,0.00
2013-12-7,27,23,18,26,21,16,99,92,75,30.39,30.13,0,0,0,0.00
2013-12-8,28,23,17,27,21,-27,99,93,10,30.39,29.85,12,0,49,0.00
2013-12-9,34,30,25,33,30,22,99,97,90,29.96,29.75,6,3,12,0.00
2013-12-10,28,23,19,22,17,12,91,78,54,30.06,29.81,7,4,12,0.00
2013-12-11,25,20,16,24,18,14,99,93,77,30.19,30.05,6,3,8,0.00
2013-12-12,32,14,7,16,8,4,99,78,56,30.25,30.03,7,3,22,0.00
2013-12-13,34,23,15,23,16,7,95,75,58,30.07,29.99,5,1,8,0.00
2013-12-14,33,28,23,33,28,21,99,98,88,30.05,29.48,4,1,7,0.00
2013-12-15,33,23,13,33,22,13,99,99,95,29.86,29.47,4,0,6,0.00
2013-12-16,28,18,11,20,14,10,99,86,58,29.99,29.82,0,0,0,0.00
2013-12-17,28,25,20,27,24,20,99,99,94,29.85,29.73,0,0,0,0.00
2013-12-18,30,25,21,29,24,21,99,96,84,29.99,29.83,0,0,0,0.00
2013-12-19,47,38,28,40,32,22,99,80,66,29.88,29.80,6,1,14,0.00
2013-12-20,54,47,41,54,45,36,99,94,71,29.80,29.66,7,4,11,0.00
2013-12-21,64,51,45,60,50,44,99,99,99,29.67,29.35,6,3,13,0.00
2013-12-22,63,55,44,63,54,43,99,97,81,29.82,29.27,11,4,21,0.00
2013-12-23,44,33,27,43,32,23,99,93,82,30.12,29.81,6,3,10,0.00
2013-12-24,27,18,15,25,17,12,99,93,79,30.33,30.06,6,3,10,0.00
2013-12-25,27,20,10,25,17,10,99,88,73,30.30,29.98,5,2,8,0.00
2013-12-26,33,27,20,30,25,19,99,92,71,30.14,29.90,8,3,11,0.00
2013-12-27,44,34,23,36,31,23,99,89,72,30.16,30.01,4,2,8,0.00
2013-12-28,55,43,35,42,37,33,94,80,58,30.02,29.83,6,3,12,0.00
2013-12-29,52,39,28,51,36,28,99,87,70,29.84,29.55,6,2,9,0.00
2013-12-30,28,21,18,28,20,17,99,99,97,30.05,29.75,0,0,0,0.00
2013-12-31,44,18,15,20,17,-9,99,94,10,30.11,29.86,49,0,49,0.00
2014-1-1,24,20,17,24,20,17,99,99,99,30.14,29.92,0,0,0,0.00
2014-1-2,19,16,10,19,16,10,99,99,99,29.92,29.62,0,0,0,0.00